SV1BYK-4 Weather Reports


Display with metric or nautical units.
time (UTC)temp
F
wind
direction
speed
MPH
gust
MPH
rain 1hr
in
rain 24hr
in
rain mn
in
humidity
%
barometer
mb
20260509213939 67 270 1.0 2.0 0.00 0.00 0.00 64 1011.0
20260509211239 68 270 2.0 2.0 0.00 0.00 0.00 63 1010.9
20260509210339 68 270 2.0 2.0 0.00 0.00 0.00 63 1010.9
20260509205439 67 270 0.0 2.0 0.00 0.00 0.00 65 1010.9
20260509204539 67 270 1.0 2.0 0.00 0.00 0.00 65 1010.7
20260509203639 67 270 0.0 2.0 0.00 0.00 0.00 65 1010.8
20260509202739 68 264 0.0 4.0 0.00 0.00 0.00 65 1010.8
20260509201839 67 248 0.0 2.0 0.00 0.00 0.00 65 1010.8
20260509200039 67 0 0.0 0.0 0.00 0.00 0.00 65 1010.7
20260509194239 67 248 0.0 2.0 0.00 0.00 0.00 65 1010.7
20260509193339 68 248 0.0 2.0 0.00 0.00 0.00 64 1010.7
20260509192439 68 242 0.0 2.0 0.00 0.00 0.00 64 1010.9
20260509191539 68 197 1.0 2.0 0.00 0.00 0.00 65 1010.8
20260509190639 68 127 1.0 2.0 0.00 0.00 0.00 64 1010.8
20260509184839 68 98 0.0 4.0 0.00 0.00 0.00 64 1010.9
20260509183939 68 113 1.0 4.0 0.00 0.00 0.00 64 1010.8
20260509183039 68 172 2.0 4.0 0.00 0.00 0.00 64 1010.7
20260509182139 68 101 2.0 4.0 0.00 0.00 0.00 64 1010.7
20260509175439 69 228 2.0 6.0 0.00 0.00 0.00 63 1010.3
20260509174539 69 199 2.0 8.0 0.00 0.00 0.00 62 1010.3
20260509173639 69 239 2.0 8.0 0.00 0.00 0.00 62 1010.1
20260509172739 69 249 3.0 8.0 0.00 0.00 0.00 61 1010.2
20260509171839 69 247 4.0 7.0 0.00 0.00 0.00 60 1010.1
20260509170939 70 274 3.0 11.0 0.00 0.00 0.00 58 1010.1
20260509170039 70 275 5.0 9.0 0.00 0.00 0.00 57 1010.1
20260509164239 71 243 5.0 11.0 0.00 0.00 0.00 55 1010.1
20260509163339 71 270 1.0 11.0 0.00 0.00 0.00 53 1010.2
20260509162439 71 244 4.0 11.0 0.00 0.00 0.00 53 1010.0
20260509160639 73 256 3.0 11.0 0.00 0.00 0.00 48 1010.0
20260509155739 73 242 3.0 11.0 0.00 0.00 0.00 47 1010.0
20260509154839 73 233 4.0 13.0 0.00 0.00 0.00 48 1009.9
20260509153939 74 221 4.0 15.0 0.00 0.00 0.00 46 1010.0
20260509153039 74 251 5.0 13.0 0.00 0.00 0.00 45 1009.8
20260509152139 76 245 4.0 11.0 0.00 0.00 0.00 42 1010.0
20260509150339 76 235 3.0 11.0 0.00 0.00 0.00 41 1010.0
20260509145439 75 262 4.0 14.0 0.00 0.00 0.00 40 1010.2
20260509142739 76 223 4.0 13.0 0.00 0.00 0.00 37 1010.2
20260509141839 76 200 3.0 13.0 0.00 0.00 0.00 35 1010.2
20260509140939 77 124 7.0 13.0 0.00 0.00 0.00 34 1010.3
20260509140039 77 187 3.0 11.0 0.00 0.00 0.00 33 1010.3
20260509135139 78 142 3.0 11.0 0.00 0.00 0.00 32 1010.3
20260509134239 78 141 4.0 13.0 0.00 0.00 0.00 34 1010.4
20260509132439 77 108 7.0 14.0 0.00 0.00 0.00 33 1010.4
20260509131539 77 127 4.0 14.0 0.00 0.00 0.00 32 1010.6
20260509130639 78 123 5.0 13.0 0.00 0.00 0.00 31 1010.6
20260509125739 78 134 7.0 11.0 0.00 0.00 0.00 33 1010.9
20260509124839 78 105 4.0 11.0 0.00 0.00 0.00 33 1010.7
20260509123939 78 157 4.0 13.0 0.00 0.00 0.00 33 1010.9
20260509122139 77 106 6.0 13.0 0.00 0.00 0.00 34 1011.0
20260509120339 77 117 5.0 15.0 0.00 0.00 0.00 35 1011.1
20260509115439 77 123 8.0 11.0 0.00 0.00 0.00 36 1011.2
20260509114539 77 122 4.0 14.0 0.00 0.00 0.00 37 1011.3
20260509112739 77 149 4.0 14.0 0.00 0.00 0.00 38 1011.4
20260509111839 78 206 4.0 14.0 0.00 0.00 0.00 37 1011.6
20260509110939 77 162 4.0 11.0 0.00 0.00 0.00 39 1011.5
20260509104239 77 157 4.0 13.0 0.00 0.00 0.00 39 1011.6
20260509103339 76 127 3.0 8.0 0.00 0.00 0.00 42 1011.7
20260509102439 76 171 4.0 13.0 0.00 0.00 0.00 43 1011.7
20260509101539 77 104 5.0 13.0 0.00 0.00 0.00 39 1011.7
20260509100639 77 192 4.0 11.0 0.00 0.00 0.00 36 1011.8
20260509095739 77 224 2.0 14.0 0.00 0.00 0.00 37 1011.9
20260509094839 76 146 5.0 11.0 0.00 0.00 0.00 37 1012.0
20260509093939 76 106 4.0 9.0 0.00 0.00 0.00 36 1012.2
20260509093039 76 210 5.0 11.0 0.00 0.00 0.00 35 1012.2
20260509091239 76 124 4.0 8.0 0.00 0.00 0.00 36 1012.1
20260509090339 76 170 2.0 8.0 0.00 0.00 0.00 38 1012.2
20260509085439 75 228 5.0 8.0 0.00 0.00 0.00 42 1012.2
20260509084539 76 123 2.0 7.0 0.00 0.00 0.00 40 1012.3
20260509083639 76 190 2.0 7.0 0.00 0.00 0.00 39 1012.4
20260509082739 76 244 2.0 7.0 0.00 0.00 0.00 38 1012.5
20260509080939 75 245 2.0 9.0 0.00 0.00 0.00 37 1012.4
20260509080039 75 241 2.0 7.0 0.00 0.00 0.00 42 1012.3
20260509075139 74 237 4.0 7.0 0.00 0.00 0.00 45 1012.3
20260509074239 75 201 2.0 6.0 0.00 0.00 0.00 44 1012.4
20260509073339 74 218 2.0 4.0 0.00 0.00 0.00 48 1012.4
20260509072440 74 229 2.0 2.0 0.00 0.00 0.00 49 1012.5
20260509071539 73 240 2.0 4.0 0.00 0.00 0.00 53 1012.5
20260509070639 71 294 2.0 4.0 0.00 0.00 0.00 57 1012.4
20260509065739 73 324 0.0 2.0 0.00 0.00 0.00 56 1012.5
20260509064839 72 299 0.0 4.0 0.00 0.00 0.00 58 1012.6
20260509063939 69 268 2.0 4.0 0.00 0.00 0.00 61 1012.4
20260509063039 72 240 0.0 2.0 0.00 0.00 0.00 59 1012.3
20260509062139 70 263 0.0 4.0 0.00 0.00 0.00 61 1012.5
20260509061239 69 270 1.0 2.0 0.00 0.00 0.00 62 1012.4
20260509060339 68 270 0.0 2.0 0.00 0.00 0.00 66 1012.5
20260509055439 67 270 0.0 2.0 0.00 0.00 0.00 68 1012.4
20260509054539 66 287 1.0 4.0 0.00 0.00 0.00 69 1012.3
20260509053639 66 83 0.0 2.0 0.00 0.00 0.00 70 1012.4
20260509052739 66 357 0.0 2.0 0.00 0.00 0.00 70 1012.3
20260509051839 66 292 1.0 2.0 0.00 0.00 0.00 72 1012.5
20260509050939 65 292 0.0 2.0 0.00 0.00 0.00 73 1012.6
20260509050039 65 292 2.0 2.0 0.00 0.00 0.00 73 1012.6
20260509045139 65 292 0.0 2.0 0.00 0.00 0.00 73 1012.7
20260509044239 65 292 0.0 2.0 0.00 0.00 0.00 73 1012.7
20260509043339 65 300 1.0 2.0 0.00 0.00 0.00 74 1012.7
20260509042439 65 5 1.0 2.0 0.00 0.00 0.00 73 1012.6
20260509041539 65 5 0.0 2.0 0.00 0.00 0.00 72 1012.5
20260509040639 65 58 2.0 4.0 0.00 0.00 0.00 70 1012.6
20260509035739 64 90 1.0 2.0 0.00 0.00 0.00 67 1012.6
20260509034839 64 98 0.0 2.0 0.00 0.00 0.00 67 1012.4
20260509033939 64 104 0.0 2.0 0.00 0.00 0.00 67 1012.3
20260509033039 64 109 2.0 4.0 0.00 0.00 0.00 67 1012.2
20260509032139 64 326 2.0 2.0 0.00 0.00 0.00 68 1012.2
20260509031239 64 314 1.0 2.0 0.00 0.00 0.00 68 1012.2
20260509030339 64 314 0.0 2.0 0.00 0.00 0.00 68 1012.2
20260509025439 64 314 0.0 2.0 0.00 0.00 0.00 68 1012.1
20260509023639 64 314 0.0 2.0 0.00 0.00 0.00 67 1012.0
20260509022739 64 314 0.0 2.0 0.00 0.00 0.00 67 1012.0
20260509021839 64 314 0.0 2.0 0.00 0.00 0.00 68 1011.9
20260509020939 64 295 0.0 4.0 0.00 0.00 0.00 67 1012.1
20260509020039 64 284 4.0 4.0 0.00 0.00 0.00 68 1012.2
20260509015139 64 270 0.0 4.0 0.00 0.00 0.00 69 1012.0
20260509013339 64 270 0.0 2.0 0.00 0.00 0.00 69 1012.4
20260509011539 64 272 1.0 4.0 0.00 0.00 0.00 69 1012.7
20260509010639 64 270 1.0 2.0 0.00 0.00 0.00 70 1012.9
20260509004839 64 270 0.0 2.0 0.00 0.00 0.00 70 1013.1
20260509003939 65 0 0.0 0.0 0.00 0.00 0.00 70 1013.2
20260509003039 65 0 0.0 0.0 0.00 0.00 0.00 69 1013.1
20260509002139 65 270 0.0 2.0 0.00 0.00 0.00 69 1013.3
20260509001239 65 270 1.0 2.0 0.00 0.00 0.00 69 1013.4
20260509000340 65 0 0.0 0.0 0.00 0.00 0.00 69 1013.6
20260508235439 65 270 0.0 2.0 0.00 0.00 0.00 69 1013.7
20260508234539 65 270 0.0 2.0 0.00 0.00 0.00 69 1013.6
20260508233639 65 270 0.0 2.0 0.00 0.00 0.00 69 1013.7
20260508232739 65 270 0.0 2.0 0.00 0.00 0.00 69 1013.8
20260508231839 65 270 0.0 2.0 0.00 0.00 0.00 69 1014.1
20260508230939 65 270 0.0 2.0 0.00 0.00 0.00 69 1014.0
20260508230039 65 270 0.0 2.0 0.00 0.00 0.00 68 1013.9
20260508224239 66 228 1.0 4.0 0.00 0.00 0.00 68 1014.1
20260508223339 66 202 1.0 2.0 0.00 0.00 0.00 67 1014.1
20260508222439 67 235 1.0 4.0 0.00 0.00 0.00 66 1014.0
20260508221539 67 244 1.0 4.0 0.00 0.00 0.00 65 1014.1
20260508220639 67 240 2.0 4.0 0.00 0.00 0.00 65 1014.3
20260508215739 67 249 2.0 4.0 0.00 0.00 0.00 64 1014.3